KJ7NO-2 Weather Reports


time (UTC)temp
C
wind
direction
speed
KPH
gust
KPH
rain 1hr
cm
rain 24hr
cm
rain mn
cm
humidity
%
barometer
mb
20260505082634 16 27 6.4 16.1 0.00 0.00 0.00 49 1008.9
20260505082139 16 27 6.4 16.1 0.00 0.00 0.00 49 1008.9
20260505081622 16 27 9.7 14.5 0.00 0.00 0.00 50 1008.9
20260505081147 16 27 6.4 14.5 0.00 0.00 0.00 50 1008.9
20260505080650 16 27 6.4 16.1 0.00 0.00 0.00 50 1008.9
20260505080135 15 27 4.8 16.1 0.00 0.00 0.00 50 1008.9
20260505075639 15 27 6.4 9.7 0.00 0.00 0.00 50 1009.0
20260505075123 15 27 4.8 6.4 0.00 0.00 0.00 51 1009.1
20260505074647 15 27 4.8 9.7 0.00 0.00 0.00 51 1009.1
20260505074131 15 27 6.4 12.9 0.00 0.00 0.00 51 1009.1
20260505073635 16 27 6.4 12.9 0.00 0.00 0.00 50 1009.1
20260505073120 16 27 6.4 16.1 0.00 0.00 0.00 51 1009.2
20260505072644 16 27 11.3 17.7 0.00 0.00 0.00 51 1009.2
20260505072128 16 27 8.0 20.9 0.00 0.00 0.00 50 1009.3
20260505071631 15 27 11.3 20.9 0.00 0.00 0.00 51 1009.4
20260505071136 15 27 11.3 17.7 0.00 0.00 0.00 52 1009.5
20260505070639 15 27 6.4 17.7 0.00 0.00 0.00 52 1009.5
20260505070144 15 27 8.0 17.7 0.00 0.00 0.00 52 1009.5
20260505065631 15 27 12.9 17.7 0.00 0.00 0.00 52 1009.5
20260505065136 15 27 14.5 19.3 0.00 0.00 0.00 52 1009.4
20260505064700 15 27 11.3 22.5 0.00 0.00 0.00 51 1009.4
20260505064123 16 27 12.9 22.5 0.00 0.00 0.00 51 1009.4
20260505063627 16 27 9.7 20.9 0.00 0.00 0.00 51 1009.2
20260505063132 16 27 14.5 20.9 0.00 0.00 0.00 50 1009.1
20260505062656 16 27 8.0 17.7 0.00 0.00 0.00 50 1009.1
20260505062139 16 27 8.0 19.3 0.00 0.00 0.00 50 1009.0
20260505061624 16 27 9.7 19.3 0.00 0.00 0.00 50 1009.0
20260505061127 16 27 8.0 27.4 0.00 0.00 0.00 50 1008.8
20260505060633 16 27 12.9 27.4 0.00 0.00 0.00 50 1008.8
20260505060137 16 27 16.1 33.8 0.00 0.00 0.00 49 1008.7
20260505055625 16 27 16.1 33.8 0.00 0.00 0.00 47 1008.5
20260505055129 16 27 11.3 22.5 0.00 0.00 0.00 46 1008.4
20260505054634 17 27 9.7 20.9 0.00 0.00 0.00 46 1008.3
20260505054158 17 27 14.5 25.7 0.00 0.00 0.00 45 1008.3
20260505053622 17 27 16.1 24.1 0.00 0.00 0.00 45 1008.3
20260505053125 17 27 11.3 27.4 0.00 0.00 0.00 43 1008.2
20260505052630 17 27 14.5 27.4 0.00 0.00 0.00 42 1008.1
20260505052134 18 27 6.4 19.3 0.00 0.00 0.00 41 1008.1
20260505051639 18 27 12.9 19.3 0.00 0.00 0.00 41 1008.1
20260505051143 18 27 8.0 17.7 0.00 0.00 0.00 40 1008.1
20260505050627 18 27 9.7 19.3 0.00 0.00 0.00 40 1008.1
20260505050130 18 27 12.9 25.7 0.00 0.00 0.00 40 1008.0
20260505041631 18 27 8.0 14.5 0.00 0.00 0.00 37 1007.7
20260505041135 18 27 6.4 14.5 0.00 0.00 0.00 36 1007.6
20260505040700 18 27 8.0 14.5 0.00 0.00 0.00 36 1007.4
20260505040143 18 27 4.8 8.0 0.00 0.00 0.00 36 1007.3
20260505035627 18 27 4.8 8.0 0.00 0.00 0.00 36 1007.3
20260505035131 18 27 3.2 6.4 0.00 0.00 0.00 37 1007.2
20260505034655 18 27 3.2 6.4 0.00 0.00 0.00 36 1007.0
20260505034122 18 27 3.2 8.0 0.00 0.00 0.00 36 1006.9
20260505033627 18 27 6.4 9.7 0.00 0.00 0.00 37 1006.9
20260505033131 18 27 3.2 12.9 0.00 0.00 0.00 37 1006.8
20260505032656 19 27 6.4 14.5 0.00 0.00 0.00 37 1006.7
20260505032139 19 27 9.7 14.5 0.00 0.00 0.00 36 1006.6
20260505031623 19 27 8.0 14.5 0.00 0.00 0.00 34 1006.5
20260505031127 19 27 4.8 8.0 0.00 0.00 0.00 33 1006.3
20260505030632 19 27 3.2 8.0 0.00 0.00 0.00 34 1006.1
20260505030136 19 27 4.8 6.4 0.00 0.00 0.00 33 1006.1
20260505025621 20 27 4.8 6.4 0.00 0.00 0.00 32 1006.1
20260505025125 20 27 4.8 8.0 0.00 0.00 0.00 32 1006.0
20260505024629 20 27 4.8 8.0 0.00 0.00 0.00 32 1006.0
20260505024138 20 27 6.4 8.0 0.00 0.00 0.00 32 1005.9
20260505023622 20 27 4.8 8.0 0.00 0.00 0.00 33 1005.9
20260505023126 20 27 4.8 8.0 0.00 0.00 0.00 33 1005.8
20260505022631 20 27 6.4 9.7 0.00 0.00 0.00 33 1005.8
20260505022135 20 27 6.4 9.7 0.00 0.00 0.00 34 1005.8
20260505021639 20 27 6.4 8.0 0.00 0.00 0.00 34 1005.8
20260505021124 21 27 6.4 8.0 0.00 0.00 0.00 33 1005.8
20260505020627 21 27 4.8 9.7 0.00 0.00 0.00 32 1005.8
20260505020152 21 27 4.8 9.7 0.00 0.00 0.00 31 1005.6
20260505015636 21 27 4.8 8.0 0.00 0.00 0.00 31 1005.6
20260505015120 21 27 4.8 8.0 0.00 0.00 0.00 29 1005.6
20260505014628 22 27 4.8 9.7 0.00 0.00 0.00 29 1005.6
20260505014133 22 27 4.8 8.0 0.00 0.00 0.00 28 1005.6
20260505013637 22 27 4.8 8.0 0.00 0.00 0.00 27 1005.7
20260505013141 22 27 4.8 8.0 0.00 0.00 0.00 27 1005.6
20260505012645 22 27 4.8 9.7 0.00 0.00 0.00 27 1005.7
20260505012128 22 27 6.4 12.9 0.00 0.00 0.00 28 1005.7
20260505011632 22 27 6.4 9.7 0.00 0.00 0.00 27 1005.7
20260505011137 22 27 6.4 11.3 0.00 0.00 0.00 27 1005.8
20260505010621 22 27 4.8 12.9 0.00 0.00 0.00 27 1005.9
20260505010126 22 27 6.4 12.9 0.00 0.00 0.00 28 1005.9
20260505005630 22 27 8.0 12.9 0.00 0.00 0.00 27 1005.9
20260505005134 22 27 6.4 12.9 0.00 0.00 0.00 27 1005.9
20260505004622 22 27 8.0 12.9 0.00 0.00 0.00 27 1005.9
20260505004127 22 27 6.4 16.1 0.00 0.00 0.00 27 1006.0
20260505003631 22 27 8.0 16.1 0.00 0.00 0.00 27 1006.1
20260505003136 23 27 9.7 14.5 0.00 0.00 0.00 27 1006.1
20260505002640 23 27 6.4 17.7 0.00 0.00 0.00 25 1006.2
20260505002124 23 27 8.0 17.7 0.00 0.00 0.00 26 1006.2
20260505001648 23 27 4.8 17.7 0.00 0.00 0.00 26 1006.2
20260505001132 23 27 6.4 17.7 0.00 0.00 0.00 25 1006.2
20260505000636 23 27 11.3 20.9 0.00 0.00 0.00 25 1006.3
20260505000121 23 27 14.5 20.9 0.00 0.00 0.00 25 1006.3
20260504235625 23 27 9.7 20.9 0.00 0.00 0.00 26 1006.3
20260504235130 23 27 9.7 17.7 0.00 0.00 0.00 26 1006.4
20260504234638 23 27 4.8 29.0 0.00 0.00 0.00 27 1006.4
20260504234122 23 27 14.5 29.0 0.00 0.00 0.00 27 1006.3
20260504233626 23 27 9.7 24.1 0.00 0.00 0.00 28 1006.4
20260504233131 22 27 14.5 24.1 0.00 0.00 0.00 28 1006.4
20260504232635 22 27 14.5 25.7 0.00 0.00 0.00 28 1006.4
20260504232120 22 27 11.3 27.4 0.00 0.00 0.00 28 1006.5
20260504231644 23 27 16.1 27.4 0.00 0.00 0.00 27 1006.6
20260504231128 23 27 19.3 27.4 0.00 0.00 0.00 27 1006.6
20260504230652 24 27 14.5 25.7 0.00 0.00 0.00 27 1006.6
20260504230155 23 27 8.0 16.1 0.00 0.00 0.00 25 1006.6
20260504225638 23 27 6.4 19.3 0.00 0.00 0.00 25 1006.6
20260504225123 23 27 9.7 20.9 0.00 0.00 0.00 25 1006.6
20260504224627 23 27 12.9 22.5 0.00 0.00 0.00 26 1006.5
20260504224136 23 27 11.3 29.0 0.00 0.00 0.00 26 1006.5
20260504223640 23 27 16.1 29.0 0.00 0.00 0.00 27 1006.5
20260504223124 23 27 16.1 29.0 0.00 0.00 0.00 28 1006.5
20260504222628 23 27 19.3 30.6 0.00 0.00 0.00 27 1006.4
20260504222133 23 27 16.1 30.6 0.00 0.00 0.00 27 1006.4
20260504221657 23 27 16.1 32.2 0.00 0.00 0.00 26 1006.4
20260504221121 23 27 16.1 24.1 0.00 0.00 0.00 26 1006.4
20260504220624 24 27 12.9 24.1 0.00 0.00 0.00 22 1006.4
20260504220149 23 27 4.8 22.5 0.00 0.00 0.00 22 1006.4
20260504215633 24 27 14.5 22.5 0.00 0.00 0.00 23 1006.4
20260504215157 24 27 9.7 20.9 0.00 0.00 0.00 23 1006.4
20260504214620 24 27 12.9 20.9 0.00 0.00 0.00 23 1006.5
20260504214125 24 27 11.3 17.7 0.00 0.00 0.00 23 1006.6
20260504213649 24 27 9.7 20.9 0.00 0.00 0.00 23 1006.7
20260504213137 24 27 9.7 22.5 0.00 0.00 0.00 24 1006.8
20260504212701 23 27 11.3 22.5 0.00 0.00 0.00 25 1006.9
20260504212125 23 27 8.0 22.5 0.00 0.00 0.00 25 1006.7
20260504211629 24 27 16.1 22.5 0.00 0.00 0.00 25 1006.7
20260504211133 24 27 9.7 17.7 0.00 0.00 0.00 24 1006.7
20260504210637 24 27 8.0 20.9 0.00 0.00 0.00 23 1006.8
20260504210122 23 27 8.0 20.9 0.00 0.00 0.00 24 1006.9
20260504205626 24 27 9.7 19.3 0.00 0.00 0.00 22 1006.9
20260504205131 25 27 6.4 16.1 0.00 0.00 0.00 23 1006.9
20260504204634 23 27 6.4 16.1 0.00 0.00 0.00 24 1007.0
20260504204139 23 27 9.7 14.5 0.00 0.00 0.00 23 1007.1
20260504203627 25 27 6.4 16.1 0.00 0.00 0.00 23 1007.2
20260504203131 24 27 8.0 17.7 0.00 0.00 0.00 23 1007.2
20260504202636 24 27 11.3 22.5 0.00 0.00 0.00 23 1007.3
20260504202140 23 27 9.7 22.5 0.00 0.00 0.00 23 1007.3
20260504201624 24 27 12.9 22.5 0.00 0.00 0.00 24 1007.3
20260504201129 24 27 11.3 17.7 0.00 0.00 0.00 24 1007.4
20260504200633 23 27 9.7 17.7 0.00 0.00 0.00 25 1007.4
20260504200137 24 27 8.0 20.9 0.00 0.00 0.00 24 1007.4
20260504195622 24 27 11.3 16.1 0.00 0.00 0.00 25 1007.4
20260504195126 24 27 4.8 14.5 0.00 0.00 0.00 25 1007.5
20260504194631 25 27 4.8 11.3 0.00 0.00 0.00 24 1007.6
20260504194139 24 27 4.8 19.3 0.00 0.00 0.00 25 1007.6
20260504193623 23 27 4.8 19.3 0.00 0.00 0.00 25 1007.8
20260504193127 23 27 8.0 14.5 0.00 0.00 0.00 25 1007.9
20260504192632 23 27 8.0 14.5 0.00 0.00 0.00 24 1007.9
20260504192137 24 27 4.8 9.7 0.00 0.00 0.00 24 1007.9
20260504191641 23 27 3.2 14.5 0.00 0.00 0.00 25 1008.1
20260504191124 23 27 6.4 14.5 0.00 0.00 0.00 25 1008.1
20260504190629 23 27 6.4 14.5 0.00 0.00 0.00 25 1008.2
20260504190132 23 27 6.4 17.7 0.00 0.00 0.00 25 1008.2
20260504185637 23 27 11.3 17.7 0.00 0.00 0.00 25 1008.4
20260504185121 22 27 4.8 19.3 0.00 0.00 0.00 26 1008.4
20260504184630 23 27 8.0 16.1 0.00 0.00 0.00 26 1008.4
20260504184134 22 27 4.8 12.9 0.00 0.00 0.00 27 1008.4
20260504183659 22 27 8.0 16.1 0.00 0.00 0.00 26 1008.6
20260504183121 23 27 4.8 14.5 0.00 0.00 0.00 26 1008.6
20260504182626 24 27 4.8 12.9 0.00 0.00 0.00 25 1008.7
20260504182130 23 27 3.2 12.9 0.00 0.00 0.00 25 1008.8
20260504181635 23 27 4.8 8.0 0.00 0.00 0.00 25 1008.9
20260504181139 23 27 3.2 12.9 0.00 0.00 0.00 26 1009.0
20260504180644 23 27 8.0 14.5 0.00 0.00 0.00 27 1009.1
20260504180127 22 27 9.7 14.5 0.00 0.00 0.00 28 1009.2
20260504175651 22 27 6.4 12.9 0.00 0.00 0.00 27 1009.1
20260504175134 23 27 4.8 12.9 0.00 0.00 0.00 27 1009.1
20260504174640 23 27 6.4 12.9 0.00 0.00 0.00 28 1009.2
20260504174143 22 27 4.8 12.9 0.00 0.00 0.00 28 1009.2
20260504173631 22 27 6.4 16.1 0.00 0.00 0.00 28 1009.2
20260504173135 22 27 4.8 17.7 0.00 0.00 0.00 29 1009.2
20260504172640 22 27 6.4 17.7 0.00 0.00 0.00 29 1009.3
20260504172123 22 27 6.4 12.9 0.00 0.00 0.00 29 1009.3
20260504171628 22 27 9.7 12.9 0.00 0.00 0.00 29 1009.3
20260504171132 22 27 4.8 16.1 0.00 0.00 0.00 31 1009.3
20260504170637 22 27 8.0 16.1 0.00 0.00 0.00 31 1009.4
20260504170121 21 27 8.0 12.9 0.00 0.00 0.00 31 1009.5
20260504160137 21 27 3.2 8.0 0.00 0.00 0.00 33 1009.6
20260504151123 18 27 4.8 9.7 0.00 0.00 0.00 39 1009.9
20260504150627 18 27 4.8 9.7 0.00 0.00 0.00 40 1010.1
20260504150132 18 27 4.8 8.0 0.00 0.00 0.00 40 1009.9
20260504141134 17 27 1.6 3.2 0.00 0.00 0.00 41 1009.9
20260504140658 16 27 1.6 3.2 0.00 0.00 0.00 42 1009.9
20260504140142 16 27 1.6 3.2 0.00 0.00 0.00 41 1009.9
20260504130627 15 27 3.2 9.7 0.00 0.00 0.00 43 1010.0
20260504130126 14 27 3.2 4.8 0.00 0.00 0.00 43 1010.0
20260504120140 14 27 1.6 6.4 0.00 0.00 0.00 39 1010.0
20260504110631 15 27 1.6 6.4 0.00 0.00 0.00 40 1010.1
20260504110135 15 27 3.2 4.8 0.00 0.00 0.00 38 1010.0
20260504100129 13 27 3.2 9.7 0.00 0.00 0.00 46 1009.6
20260504090123 14 27 3.2 14.5 0.00 0.00 0.00 48 1009.6